Location: Roswell
(33.3943°N, 104.5230°W)
Time: 08:01:08
(UTC+00:00)

Tiros 1 - Pass Details

Date: 17 November 2024
Orbit: 622 x 653 km, 48.4° (Epoch: 06 December)

Event Time Altitude Azimuth Distance (km) Brightness Sun altitude
Rises 01:30:51 0° 306° (NW) 2,956 11.2 -20.1°
Reaches altitude 10° 01:34:32 10° 335° (NNW) 2,052 9.9 -20.8°
Maximum altitude 01:36:38 13° 1° (N) 1,877 9.4 -21.3°
Enters shadow 01:37:02 13° 7° (N) 1,884 9.4 -21.3°
